Printer-friendly version

IAU Minor Planet Center

Minor Planet Center

MPEC 2007-L41 : 2007 LV

The following Minor Planet Electronic Circular may be linked-to from your own Web pages, but must not otherwise be redistributed electronically.


Read MPEC 2007-L40 Read MPEC 2007-L42


M.P.E.C. 2007-L41                                Issued 2007 June 11, 09:37 UT

     The Minor Planet Electronic Circulars contain information on unusual
         minor planets and routine data on comets.  They are published
   on behalf of Commission 20 of the International Astronomical Union by the
          Minor Planet Center, Smithsonian Astrophysical Observatory,
                          Cambridge, MA 02138, U.S.A.

             Prepared using the Tamkin Foundation Computer Network

                              MPC@CFA.HARVARD.EDU
          URL http://www.cfa.harvard.edu/iau/mpc.html  ISSN 1523-6714

                                    2007 LV

Observations:
     K07L00V* C2007 06 09.65043 20 39 01.33 -37 07 23.8          18.8 V EL041E12
     K07L00V  C2007 06 09.65973 20 39 02.48 -37 07 42.2          18.7 V EL041E12
     K07L00V  C2007 06 09.66914 20 39 03.63 -37 08 00.0          18.6 V EL041E12
     K07L00V  C2007 06 09.67863 20 39 04.78 -37 08 18.9          18.6 V EL041E12
     K07L00V  C2007 06 09.74363 20 39 12.78 -37 10 26.6          19.1 V EL041E12
     K07L00V  C2007 06 09.74921 20 39 13.53 -37 10 37.7          19.0 V EL041E12
     K07L00V  C2007 06 09.75464 20 39 14.11 -37 10 48.4          18.9 V EL041E12
     K07L00V  C2007 06 09.76005 20 39 14.79 -37 10 59.3          18.6 V EL041E12
     K07L00V  C2007 06 09.76890 20 39 15.91 -37 11 15.9          18.7 V EL041E12
     K07L00V  C2007 06 09.78190 20 39 17.53 -37 11 41.8          18.8 V EL041E12
     K07L00V  C2007 06 09.79488 20 39 19.11 -37 12 08.0          19.1 V EL041E12
     K07L00V  C2007 06 09.80794 20 39 20.73 -37 12 32.5          18.8 V EL041E12
     K07L00V 5C2007 06 10.41111 20 40 40.38 -37 32 38.8          18.5 R EL041673
     K07L00V 5C2007 06 10.41319 20 40 40.69 -37 32 43.5                 EL041673
     K07L00V 5C2007 06 10.41956 20 40 41.39 -37 32 56.5                 EL041673
     K07L00V 5C2007 06 10.42546 20 40 42.12 -37 33 07.9                 EL041673
     K07L00V  C2007 06 10.58160 20 41 02.80 -37 38 00.2          18.2 R EL041474
     K07L00V  C2007 06 10.58438 20 41 03.14 -37 38 05.8          18.5 R EL041474
     K07L00V  C2007 06 10.58900 20 41 03.72 -37 38 15.2          18.6 R EL041474
     K07L00V  C2007 06 10.58954 20 41 04.23 -37 38 17.6          18.7 V EL041E12
     K07L00V  C2007 06 10.59076 20 41 04.38 -37 38 20.1          18.6 V EL041E12
     K07L00V  C2007 06 10.59199 20 41 04.56 -37 38 22.8          18.7 V EL041E12
     K07L00V  C2007 06 10.59324 20 41 04.70 -37 38 25.6          18.9 V EL041E12

Observer details:
474 Mount John Observatory, Lake Tekapo.  Observer A. C. Gilmore.  1.0-m f/7.7
    reflector + CCD.
673 Table Mountain Observatory, Wrightwood.  Observer J. Young.  0.61-m f/16
    Cassegrain + CCD.
E12 Siding Spring Survey.  Observer G. J. Garradd.  Measurers E. C. Beshore,
    E. J. Christensen, G. J. Garradd, A. R. Gibbs, A. D. Grauer, R. E. Hill,
    R. A. Kowalski, S. M. Larson, R. H. McNaught.  0.5-m Uppsala Schmidt + CCD.

Orbital elements:
2007 LV                                                  Earth MOID = 0.3862 AU
Epoch 2007 Apr. 10.0 TT = JDT 2454200.5                 MPC
M 291.47831              (2000.0)            P               Q
n   0.44407449     Peri.  271.96125     +0.91123349     +0.31049999
a   1.7015008      Node    70.03148     -0.15589438     +0.86816724
e   0.2745806      Incl.   16.73504     -0.38124856     +0.38713744
P   2.22           H   18.1           G   0.15           U   9
Residuals in seconds of arc
070609 E12  0.0   0.5-    070609 E12  0.1+  0.6+    070610 474  0.1+  0.1+
070609 E12  0.0   0.5-    070609 E12  0.4+  0.0     070610 474  0.0   0.1+
070609 E12  0.1-  0.4+    070609 E12  0.2+  0.9-    070610 474  0.0   0.0
070609 E12  0.4-  0.3+    070609 E12  0.2+  0.1-    070610 E12  0.0   0.2+
070609 E12  0.2-  0.5+    070610 673  0.1-  0.3+    070610 E12  0.0   0.2+
070609 E12  0.6+  0.3+    070610 673  0.5+  0.2-    070610 E12  0.3+  0.0
070609 E12  0.4-  0.2+    070610 673  0.6-  0.4-    070610 E12  0.1+  0.3-
070609 E12  0.2-  0.1-    070610 673  0.6-  0.0

Ephemeris:
2007 LV                  a,e,i = 1.70, 0.27, 17                  q = 1.2343
Date    TT    R. A. (2000) Decl.     Delta      r     Elong.  Phase     V
2007 06 09    20 37.60   -36 46.2    0.533    1.432   132.8    31.4    18.9
2007 06 19    20 59.85   -42 38.7    0.474    1.397   136.2    30.2    18.5
2007 06 29    21 23.83   -49 17.6    0.431    1.365   137.2    30.4    18.3
2007 07 09    21 50.25   -56 08.7    0.404    1.335   135.4    32.3    18.1
2007 07 19    22 19.29   -62 26.3    0.390    1.308   131.5    35.6    18.1
2007 07 29    22 50.21   -67 27.9    0.387    1.284   126.7    39.4    18.1
2007 08 08    23 19.95   -70 52.3    0.390    1.265   122.1    42.8    18.2
2007 08 18    23 43.03   -72 35.9    0.396    1.250   118.3    45.5    18.3
2007 08 28    23 55.53   -72 42.9    0.403    1.240   115.8    47.2    18.4
2007 09 07    23 58.03   -71 17.9    0.409    1.235   114.4    48.0    18.4
2007 09 17    23 54.99   -68 19.3    0.416    1.235   114.1    48.0    18.5
2007 09 27    23 51.64   -63 46.1    0.423    1.241   114.8    47.2    18.5
2007 10 07    23 50.66   -57 44.8    0.434    1.252   115.9    45.9    18.5
2007 10 17    23 52.89   -50 27.9    0.450    1.267   117.2    44.4    18.6
2007 10 27    23 58.30   -42 19.1    0.475    1.287   118.1    42.9    18.7
2007 11 06    00 06.34   -33 48.9    0.511    1.311   118.0    41.9    18.9
2007 11 16    00 16.60   -25 26.6    0.560    1.339   116.8    41.2    19.1
2007 11 26    00 28.76   -17 35.4    0.623    1.369   114.6    40.9    19.4
2007 12 06    00 42.45   -10 28.5    0.699    1.402   111.5    40.8    19.7
2007 12 16    00 57.51   -04 09.0    0.787    1.436   107.8    40.7    20.0
2007 12 26    01 13.79   +01 25.0    0.886    1.472   103.8    40.4    20.3
2008 01 05    01 31.14   +06 17.9    0.994    1.509    99.5    40.0    20.6
2008 01 15    01 49.49   +10 35.3    1.109    1.547    95.1    39.3    20.8
2008 01 25    02 08.77   +14 21.8    1.230    1.584    90.6    38.4    21.1
2008 02 04    02 28.90   +17 41.2    1.356    1.622    86.2    37.3    21.3
2008 02 14    02 49.87   +20 36.7    1.484    1.659    81.7    36.1    21.5
2008 02 24    03 11.60   +23 10.4    1.614    1.696    77.2    34.7    21.7
2008 03 05    03 34.04   +25 23.7    1.744    1.732    72.7    33.2    21.9
2008 03 15    03 57.14   +27 17.9    1.874    1.767    68.3    31.5    22.0

Timothy B. Spahr             (C) Copyright 2007 MPC           M.P.E.C. 2007-L41

Read MPEC 2007-L40 Read MPEC 2007-L42


Our Web policy. Index to the CBAT/MPC/ICQ pages.


Valid HTML 4.01!